This demonstration page uses our WeatherBlox Daily Observations layout. Learn more.

Left ArrowRight Arrow

34.16533, -84.80231

Hourly Observations for August 5, 2022

Temp ( °F °C ) Dew Point ( °F °C ) Humidity (%) Winds ( mph kmh ) Pressure ( in mb ) Visibility ( mi km ) Precip ( " mm )
12:15 am 00:15 Clear 75 24 73 23 94 94 E 6 9 30.09 1019 10 16 0.00 0.00
12:35 am 00:35 Clear 75 24 72 22 89 89 E 5 7 30.10 1019 10 16 0.00 0.00
12:55 am 00:55 Clear 75 24 72 22 89 89 E 5 7 30.10 1019 10 16 0.00 0.00
1:15 am 01:15 Clear 75 24 72 22 89 89 E 3 6 30.10 1019 10 16 0.00 0.00
1:35 am 01:35 Clear 75 24 72 22 89 89 ENE 3 6 30.10 1019 10 16 0.00 0.00
1:55 am 01:55 Clear 75 24 72 22 89 89 Calm 30.10 1019 10 16 0.00 0.00
2:15 am 02:15 Clear 75 24 72 22 89 89 Calm 30.10 1019 10 16 0.00 0.00
2:35 am 02:35 Mostly Clear 75 24 72 22 89 89 E 6 9 30.10 1019 10 16 0.00 0.00
2:55 am 02:55 Clear 75 24 72 22 89 89 Calm 30.09 1019 10 16 0.00 0.00
3:15 am 03:15 Partly Cloudy 73 23 72 22 94 94 Calm 30.09 1019 10 16 0.00 0.00
3:35 am 03:35 Mostly Clear 73 23 72 22 94 94 E 5 7 30.09 1019 10 16 0.00 0.00
3:55 am 03:55 Clear 75 24 72 22 89 89 ESE 3 6 30.09 1019 10 16 0.00 0.00
4:15 am 04:15 Clear 73 23 72 22 94 94 Calm 30.09 1019 10 16 0.00 0.00
4:35 am 04:35 Clear 73 23 72 22 94 94 Calm 30.09 1019 10 16 0.00 0.00
4:55 am 04:55 Clear 73 23 72 22 94 94 Calm 30.10 1019 10 16 0.00 0.00
5:15 am 05:15 Clear 73 23 72 22 94 94 Calm 30.11 1020 10 16 0.00 0.00
5:35 am 05:35 Mostly Clear 73 23 72 22 94 94 Calm 30.11 1020 10 16 0.00 0.00
5:55 am 05:55 Partly Cloudy 73 23 72 22 94 94 Calm 30.12 1020 10 16 0.00 0.00
6:15 am 06:15 Partly Cloudy 73 23 72 22 94 94 Calm 30.12 1020 10 16 0.00 0.00
6:35 am 06:35 Mostly Clear 72 22 72 22 100 100 Calm 30.13 1020 10 16 0.00 0.00
6:55 am 06:55 Sunny 72 22 72 22 100 100 Calm 30.14 1021 9 14 0.00 0.00
7:15 am 07:15 Sunny 73 23 72 22 94 94 Calm 30.14 1021 10 16 0.00 0.00
7:35 am 07:35 Sunny 73 23 72 22 94 94 Calm 30.14 1021 10 16 0.00 0.00
7:55 am 07:55 Sunny 73 23 73 23 100 100 Calm 30.15 1021 9 14 0.00 0.00
8:15 am 08:15 Sunny 75 24 73 23 94 94 Calm 30.15 1021 10 16 0.00 0.00
8:35 am 08:35 Sunny 77 25 73 23 89 89 E 7 11 30.15 1021 10 16 0.00 0.00
8:55 am 08:55 Sunny 77 25 73 23 89 89 E 8 13 30.16 1021 10 16 0.00 0.00
9:15 am 09:15 Sunny 79 26 73 23 84 84 ENE 6 9 30.17 1022 10 16 0.00 0.00
9:35 am 09:35 Sunny 81 27 73 23 79 79 VRB 3 6 30.16 1021 10 16 0.00 0.00
9:55 am 09:55 Partly Cloudy 81 27 73 23 79 79 ENE 6 9 30.16 1021 10 16 0.00 0.00
10:15 am 10:15 Mostly Cloudy 82 28 73 23 74 74 Calm 30.16 1021 10 16 0.00 0.00
10:35 am 10:35 Sunny 82 28 75 24 79 79 VRB 5 7 30.16 1021 10 16 0.00 0.00
10:55 am 10:55 Sunny 82 28 73 23 74 74 Calm 30.16 1021 10 16 0.00 0.00
11:15 am 11:15 Sunny 84 29 75 24 74 74 E 5 7 30.16 1021 10 16 0.00 0.00
11:35 am 11:35 Mostly Sunny 84 29 75 24 74 74 VRB 5 7 30.16 1021 10 16 0.00 0.00
11:55 am 11:55 Mostly Sunny 86 30 75 24 70 70 VRB 5 7 30.16 1021 10 16 0.00 0.00
12:15 pm 12:15 Mostly Sunny 86 30 75 24 70 70 Calm 30.15 1021 10 16 0.00 0.00
12:35 pm 12:35 Partly Cloudy 86 30 75 24 70 70 Calm 30.15 1021 10 16 0.00 0.00
12:55 pm 12:55 Partly Cloudy 88 31 75 24 66 66 Calm 30.14 1021 10 16 0.00 0.00
1:15 pm 13:15 Partly Cloudy 90 32 73 23 59 59 VRB 3 6 30.13 1020 10 16 0.00 0.00
1:35 pm 13:35 Mostly Sunny 90 32 73 23 59 59 VRB 5 7 30.12 1020 10 16 0.00 0.00
1:55 pm 13:55 Mostly Sunny 91 33 73 23 56 56 VRB 5 7 30.12 1020 10 16 0.00 0.00
2:15 pm 14:15 Mostly Sunny 90 32 72 22 55 55 ESE 6 9 30.11 1020 10 16 0.00 0.00
2:35 pm 14:35 Mostly Sunny 91 33 73 23 56 56 VRB 5 7 30.10 1019 10 16 0.00 0.00
2:55 pm 14:55 Mostly Sunny 91 33 73 23 56 56 VRB 5 7 30.10 1019 10 16 0.00 0.00
3:15 pm 15:15 Partly Cloudy with Nearby Thunderstorms 93 34 72 22 49 49 SSE 7 11 30.09 1019 10 16 0.00 0.00
3:35 pm 15:35 Partly Cloudy with Nearby Thunderstorms 91 33 73 23 56 56 VRB 5 7 30.08 1019 10 16 0.00 0.00
3:55 pm 15:55 Mostly Cloudy with Thunderstorms 81 27 72 22 74 74 W 16 26 30.11 1020 10 16 0.00 0.00
4:15 pm 16:15 Mostly Cloudy with Thunderstorms 81 27 70 21 70 70 VRB 5 7 30.10 1019 10 16 0.00 0.00
4:35 pm 16:35 Partly Cloudy with Thunderstorms 79 26 72 22 79 79 N 7 11 30.10 1019 10 16 0.00 0.00
4:55 pm 16:55 Sunny with Nearby Thunderstorms 79 26 70 21 74 74 NNE 6 9 30.11 1020 10 16 0.00 0.00
5:15 pm 17:15 Partly Cloudy with Thunderstorms 79 26 70 21 74 74 SW 6 9 30.12 1020 10 16 0.00 0.00
5:35 pm 17:35 Mostly Cloudy with Thunderstorms 77 25 72 22 83 83 SSW 13 20 30.12 1020 2 3 0.00 0.00
5:55 pm 17:55 Mostly Cloudy with Thunderstorms 75 24 70 21 83 83 Calm 30.10 1019 2 3 0.34 8.64
6:15 pm 18:15 Sunny with Nearby Thunderstorms 73 23 72 22 94 94 Calm 30.11 1020 9 14 0.00 0.00
6:35 pm 18:35 Sunny with Light Rain 75 24 73 23 94 94 ESE 5 7 30.11 1020 10 16 0.00 0.00
6:55 pm 18:55 Sunny with Nearby Thunderstorms 75 24 73 23 94 94 E 7 11 30.12 1020 10 16 0.01 0.25
7:15 pm 19:15 Sunny 77 25 73 23 89 89 Calm 30.11 1020 10 16 0.00 0.00
7:35 pm 19:35 Sunny with Nearby Thunderstorms 75 24 72 22 89 89 E 6 9 30.12 1020 10 16 0.00 0.00
7:55 pm 19:55 Sunny 75 24 72 22 89 89 E 3 6 30.12 1020 10 16 0.00 0.00
8:15 pm 20:15 Sunny 75 24 72 22 89 89 Calm 30.12 1020 10 16 0.00 0.00
8:35 pm 20:35 Sunny 75 24 72 22 89 89 ESE 6 9 30.12 1020 10 16 0.00 0.00
8:55 pm 20:55 Clear 73 23 70 21 89 89 E 6 9 30.13 1020 10 16 0.00 0.00
9:15 pm 21:15 Clear 73 23 70 21 89 89 VRB 3 6 30.13 1020 10 16 0.00 0.00
9:35 pm 21:35 Clear 73 23 70 21 89 89 Calm 30.13 1020 10 16 0.00 0.00
9:55 pm 21:55 Clear 73 23 70 21 89 89 Calm 30.14 1021 10 16 0.00 0.00
10:15 pm 22:15 Clear 73 23 72 22 94 94 Calm 30.15 1021 10 16 0.00 0.00
10:35 pm 22:35 Clear 73 23 72 22 94 94 Calm 30.16 1021 10 16 0.00 0.00
10:55 pm 22:55 Clear 73 23 72 22 94 94 Calm 30.16 1021 10 16 0.00 0.00
11:15 pm 23:15 Clear 73 23 72 22 94 94 Calm 30.16 1021 10 16 0.00 0.00
11:35 pm 23:35 Clear 73 23 72 22 94 94 Calm 30.16 1021 10 16 0.00 0.00
11:55 pm 23:55 Clear 73 23 72 22 94 94 Calm 30.16 1021 10 16 0.00 0.00

Powered by AerisWeather